Location: Proctor
(47.8934°N, 114.3048°W)
Time: 17:40:35
(UTC+00:00)

Transit 4A - Pass Details

Date: 16 May 2025
Orbit: 866 x 975 km, 66.8° (Epoch: 13 June)

Event Time Altitude Azimuth Distance (km) Brightness Sun altitude
Rises 09:18:24 0° 324° (NW) 3,616 11.4 -18.9°
Reaches altitude 10° 09:21:39 10° 340° (NNW) 2,649 10.9 -18.7°
Maximum altitude 09:26:17 22° 29° (NNE) 1,915 10.5 -18.3°
Drops below altitude 10° 09:30:48 10° 78° (ENE) 2,584 10.8 -17.9°
Sets 09:33:54 0° 94° (E) 3,503 11.3 -17.7°
